Weather History for Butte, MT

Change the Weather History Date:

Tuesday, November 6, 2012

  Actual Average Record
Temperature  
Mean Temperature 45 °F 33 °F  
Max Temperature 64 °F 45 °F 65 °F (1997)
Min Temperature 26 °F 20 °F -14 °F (2003)
Degree Days  
Heating Degree Days 20 32  
Month to date heating degree days 132 186  
Since 1 July heating degree days 1318 1557  
Cooling Degree Days 0 0  
Month to date cooling degree days 0 0  
Year to date cooling degree days 121 81  
Moisture  
Dew Point 28 °F    
Average Humidity 60    
Maximum Humidity 92    
Minimum Humidity 27    
Precipitation  
Precipitation 0.00 in 0.02 in 0.31 in (1973)
Month to date precipitation T 0.12  
Year to date precipitation 7.79 11.78  
Sea Level Pressure  
Sea Level Pressure 30.19 in    
Wind  
Wind Speed 3 mph (SSW)    
Max Wind Speed 15 mph    
Max Gust Speed 20 mph    
Visibility 10 miles    
Events      
T = Trace of Precipitation, MM = Missing Value Source: NWS Daily Summary

Daily Weather History Graph

Daily Weather History Graph

Search for Another Location

Airport:

Trip Planner

Search our weather history database for the weather conditions in past years. The results will help you decide how hot, cold, wet, or windy it might be!

Date:

Astronomy

Nov. 06, 2012 Rise Set
Actual Time 7:18 AM MST 5:08 PM MST
Civil Twilight 6:46 AM MST 5:39 PM MST
Nautical Twilight 6:11 AM MST 6:15 PM MST
Astronomical Twilight 5:36 AM MST 6:50 PM MST
Moon 11:55 PM MST (11/6) 1:09 PM MST (11/6)
Length of Visible Light 10h 53m
Length of Day
9h 49m
Waning Gibbous, 52% of the Moon is Illuminated
Nov 6
Waning Gibbous
Nov 6
Last Quarter
Nov 13
New
Nov 20
First Quarter
Nov 28
Full

Hourly Weather History & Observations

Time (MST) Temp. Windchill Dew Point Humidity Pressure Visibility Wind Dir Wind Speed Gust Speed Precip Events Conditions
12:53 AM 32.0 °F 28.7 °F 27.0 °F 82% 30.26 in 10.0 mi SE 3.5 mph - N/A   Clear
1:53 AM 32.0 °F - 27.0 °F 82% 30.26 in 10.0 mi Calm Calm - N/A   Clear
2:53 AM 30.0 °F - 25.0 °F 82% 30.27 in 10.0 mi Calm Calm - N/A   Clear
3:53 AM 28.9 °F - 25.0 °F 85% 30.28 in 10.0 mi Calm Calm - N/A   Clear
4:53 AM 28.0 °F - 25.0 °F 88% 30.30 in 10.0 mi Calm Calm - N/A   Clear
5:53 AM 26.1 °F 20.5 °F 23.0 °F 88% 30.31 in 10.0 mi East 4.6 mph - N/A   Clear
6:53 AM 27.0 °F 21.6 °F 24.1 °F 89% 30.30 in 10.0 mi ESE 4.6 mph - N/A   Clear
7:53 AM 26.1 °F - 24.1 °F 92% 30.32 in 9.0 mi Calm Calm - N/A   Clear
8:53 AM 30.0 °F - 26.1 °F 85% 30.33 in 10.0 mi Calm Calm - N/A   Clear
9:53 AM 37.0 °F - 30.9 °F 79% 30.31 in 10.0 mi Calm Calm - N/A   Clear
10:53 AM 46.0 °F - 33.1 °F 61% 30.25 in 10.0 mi Calm Calm - N/A   Clear
11:53 AM 57.0 °F - 30.9 °F 37% 30.19 in 10.0 mi Calm Calm - N/A   Clear
12:53 PM 62.1 °F - 28.9 °F 29% 30.13 in 10.0 mi SW 12.7 mph 18.4 mph N/A   Clear
1:53 PM 63.0 °F - 28.9 °F 28% 30.11 in 10.0 mi SW 13.8 mph 19.6 mph N/A   Clear
2:53 PM 63.0 °F - 30.9 °F 30% 30.09 in 10.0 mi WSW 9.2 mph 19.6 mph N/A   Clear
3:53 PM 62.1 °F - 30.9 °F 31% 30.09 in 10.0 mi SSW 4.6 mph - N/A   Clear
4:53 PM 59.0 °F - 30.9 °F 35% 30.09 in 10.0 mi West 4.6 mph - N/A   Clear
5:53 PM 50.0 °F - 30.0 °F 46% 30.12 in 10.0 mi Calm Calm - N/A   Clear
6:53 PM 45.0 °F - 30.0 °F 56% 30.13 in 10.0 mi Calm Calm - N/A   Clear
7:53 PM 42.1 °F - 28.9 °F 60% 30.13 in 10.0 mi Calm Calm - N/A   Clear
8:53 PM 37.9 °F - 28.0 °F 68% 30.11 in 8.0 mi Calm Calm - N/A   Clear
9:53 PM 34.0 °F 28.8 °F 26.1 °F 73% 30.08 in 10.0 mi South 5.8 mph - N/A   Clear
10:53 PM 33.1 °F - 26.1 °F 75% 30.03 in 10.0 mi Calm Calm - N/A   Clear
11:53 PM 34.0 °F - 26.1 °F 73% 29.98 in 10.0 mi Calm Calm - N/A   Clear